Howell, MI

10:48 PM EDT on August 21, 2017 (GMT -0400)
Livingston County

Weather History for KOZW - September, 2012

Change the Weather History Date:

Monday, September 10, 2012

  Actual Average Record
Temperature  
Mean Temperature 58 °F -  
Max Temperature 72 °F 75 °F 92 °F (2013)
Min Temperature 44 °F 54 °F 42 °F (2008)
Degree Days  
Heating Degree Days 7    
Growing Degree Days 8 (Base 50)    
Moisture  
Dew Point 41 °F    
Average Humidity 56    
Maximum Humidity 90    
Minimum Humidity 27    
Precipitation  
Precipitation 0.00 in - - ()
Sea Level Pressure  
Sea Level Pressure 30.18 in    
Wind  
Wind Speed 1 mph (WSW)    
Max Wind Speed 7 mph    
Max Gust Speed -    
Visibility 10 miles    
Events      
Averages and records for this station are not official NWS values.
T = Trace of Precipitation, MM = Missing Value Source: NWS Daily Summary

Daily Weather History Graph

Daily Weather History Graph

Search for Another Location

Airport or City:

Trip Planner

Search our weather history database for the weather conditions in past years. The results will help you decide how hot, cold, wet, or windy it might be!

Date:

Astronomy

Sep. 10, 2012 Rise Set
Actual Time 7:10 AM EDT 7:53 PM EDT
Civil Twilight 6:42 AM EDT 8:22 PM EDT
Nautical Twilight 6:08 AM EDT 8:55 PM EDT
Astronomical Twilight 5:33 AM EDT 9:30 PM EDT
Moon 1:25 AM EDT (9/10) 4:28 PM EDT (9/10)
Length of Visible Light 13h 39m
Length of Day
12h 42m
Waning Crescent, 30% of the Moon is Illuminated
Sep 10
Waning Crescent
Sep 15
New
Sep 22
First Quarter
Sep 29
Full
Oct 8
Last Quarter

Hourly Weather History & Observations

Time (EDT) Temp. Windchill Dew Point Humidity Pressure Visibility Wind Dir Wind Speed Gust Speed Precip Events Conditions
12:14 AM 55.4 °F - 42.8 °F 63% 30.11 in 10.0 mi Calm Calm - N/A   Clear
12:35 AM 50.9 °F - 43.2 °F 75% 30.11 in 10.0 mi Calm Calm - N/A   Clear
12:55 AM 49.8 °F - 44.2 °F 81% 30.12 in 10.0 mi Calm Calm - N/A   Clear
1:14 AM 49.6 °F - 43.7 °F 80% 30.12 in 10.0 mi Calm Calm - N/A   Clear
1:35 AM 50.4 °F - 44.1 °F 79% 30.13 in 10.0 mi Calm Calm - N/A   Clear
1:55 AM 49.3 °F - 43.7 °F 81% 30.13 in 10.0 mi Calm Calm - N/A   Clear
2:14 AM 47.5 °F - 43.3 °F 86% 30.14 in 10.0 mi Calm Calm - N/A   Clear
2:35 AM 48.4 °F - 44.1 °F 85% 30.14 in 10.0 mi Calm Calm - N/A   Clear
2:54 AM 47.7 °F - 43.7 °F 86% 30.14 in 10.0 mi Calm Calm - N/A   Clear
3:15 AM 47.3 °F - 43.7 °F 87% 30.14 in 10.0 mi Calm Calm - N/A   Clear
3:35 AM 46.9 °F - 43.2 °F 87% 30.15 in 10.0 mi Calm Calm - N/A   Clear
3:54 AM 46.4 °F - 42.8 °F 87% 30.15 in 10.0 mi Calm Calm - N/A   Clear
4:15 AM 46.4 °F 45.2 °F 43.2 °F 88% 30.16 in 10.0 mi West 3.5 mph - N/A   Clear
4:35 AM 45.5 °F - 42.4 °F 89% 30.16 in 10.0 mi Calm Calm - N/A   Clear
4:54 AM 46.6 °F - 43.5 °F 89% 30.17 in 10.0 mi Calm Calm - N/A   Clear
5:15 AM 45.9 °F - 42.8 °F 89% 30.17 in 10.0 mi Calm Calm - N/A   Clear
5:34 AM 45.7 °F - 42.8 °F 90% 30.17 in 10.0 mi Calm Calm - N/A   Clear
5:55 AM 46.4 °F - 43.7 °F 90% 30.17 in 10.0 mi Calm Calm - N/A   Clear
6:15 AM 45.9 °F - 42.8 °F 89% 30.18 in 10.0 mi Calm Calm - N/A   Clear
6:34 AM 46.4 °F - 43.2 °F 88% 30.18 in 10.0 mi Calm Calm - N/A   Clear
6:55 AM 45.1 °F - 42.1 °F 89% 30.20 in 10.0 mi Calm Calm - N/A   Clear
7:15 AM 44.2 °F - 41.2 °F 89% 30.20 in 10.0 mi Calm Calm - N/A   Clear
7:35 AM 44.8 °F - 41.9 °F 90% 30.21 in 10.0 mi Calm Calm - N/A   Clear
7:55 AM 47.3 °F - 43.9 °F 88% 30.22 in 10.0 mi Calm Calm - N/A   Clear
8:14 AM 49.1 °F - 45.5 °F 87% 30.22 in 10.0 mi Calm Calm - N/A   Clear
8:35 AM 51.3 °F - 45.9 °F 82% 30.23 in 10.0 mi Calm Calm - N/A   Clear
8:54 AM 54.1 °F - 47.5 °F 78% 30.23 in 10.0 mi Calm Calm - N/A   Clear
9:15 AM 56.8 °F - 47.8 °F 72% 30.23 in 10.0 mi Calm Calm - N/A   Clear
9:35 AM 60.1 °F - 46.2 °F 60% 30.24 in 10.0 mi Calm Calm - N/A   Clear
9:54 AM 61.9 °F - 45.1 °F 54% 30.24 in 10.0 mi West 3.5 mph - N/A   Clear
10:15 AM 63.1 °F - 45.7 °F 53% 30.24 in 10.0 mi West 3.5 mph - N/A   Clear
10:35 AM 64.6 °F - 42.8 °F 45% 30.24 in 10.0 mi WSW 4.6 mph - N/A   Clear
10:54 AM 64.8 °F - 41.5 °F 43% 30.24 in 10.0 mi WSW 4.6 mph - N/A   Clear
11:15 AM 66.2 °F - 40.8 °F 40% 30.24 in 10.0 mi SW 4.6 mph - N/A   Clear
11:34 AM 66.4 °F - 39.9 °F 38% 30.24 in 10.0 mi Calm Calm - N/A   Clear
11:55 AM 67.3 °F - 39.4 °F 36% 30.24 in 10.0 mi SW 4.6 mph - N/A   Clear
12:15 PM 68.0 °F - 38.8 °F 34% 30.24 in 10.0 mi Calm Calm - N/A   Clear
12:34 PM 67.3 °F - 35.1 °F 30% 30.23 in 10.0 mi Calm Calm - N/A   Clear
12:55 PM 68.7 °F - 39.4 °F 34% 30.23 in 10.0 mi SW 3.5 mph - N/A   Scattered Clouds
1:15 PM 68.9 °F - 34.9 °F 29% 30.23 in 10.0 mi Calm Calm - N/A   Clear
1:34 PM 68.9 °F - 36.3 °F 30% 30.22 in 10.0 mi Calm Calm - N/A   Clear
1:55 PM 69.1 °F - 34.5 °F 28% 30.22 in 10.0 mi Calm Calm - N/A   Clear
2:15 PM 70.0 °F - 35.1 °F 28% 30.22 in 10.0 mi Calm Calm - N/A   Clear
2:35 PM 70.9 °F - 37.8 °F 30% 30.21 in 7.0 mi West 6.9 mph - N/A   Clear
2:55 PM 71.1 °F - 35.6 °F 27% 30.20 in 10.0 mi South 3.5 mph - N/A   Clear
3:14 PM 70.7 °F - 35.8 °F 28% 30.19 in 10.0 mi SW 4.6 mph - N/A   Clear
3:35 PM 71.2 °F - 36.0 °F 27% 30.18 in 10.0 mi SW 4.6 mph - N/A   Clear
3:55 PM 71.6 °F - 35.6 °F 27% 30.18 in 10.0 mi Calm Calm - N/A   Clear
4:14 PM 72.1 °F - 36.3 °F 27% 30.17 in 10.0 mi NNW 3.5 mph - N/A   Clear
4:35 PM 72.1 °F - 37.4 °F 28% 30.17 in 10.0 mi Calm Calm - N/A   Clear
4:55 PM 71.6 °F - 36.9 °F 28% 30.17 in 10.0 mi Calm Calm - N/A   Clear
5:14 PM 71.8 °F - 36.5 °F 28% 30.17 in 10.0 mi SSW 3.5 mph - N/A   Clear
5:35 PM 72.1 °F - 36.7 °F 27% 30.17 in 10.0 mi Calm Calm - N/A   Clear
5:55 PM 72.5 °F - 36.7 °F 27% 30.17 in 10.0 mi Calm Calm - N/A   Clear
6:14 PM 72.1 °F - 36.7 °F 27% 30.17 in 10.0 mi Calm Calm - N/A   Clear
6:35 PM 72.3 °F - 37.6 °F 28% 30.17 in 10.0 mi West 4.6 mph - N/A   Clear
6:55 PM 70.7 °F - 38.3 °F 31% 30.16 in 10.0 mi WSW 4.6 mph - N/A   Clear
7:14 PM 68.4 °F - 38.8 °F 34% 30.15 in 10.0 mi WSW 3.5 mph - N/A   Clear
7:35 PM 68.9 °F - 37.8 °F 32% 30.15 in 10.0 mi Calm Calm - N/A   Clear
7:55 PM 68.4 °F - 37.9 °F 33% 30.15 in 10.0 mi Calm Calm - N/A   Clear
8:15 PM 65.8 °F - 39.9 °F 39% 30.15 in 10.0 mi Calm Calm - N/A   Clear
8:35 PM 65.5 °F - 40.3 °F 40% 30.15 in 10.0 mi Calm Calm - N/A   Clear
8:54 PM 64.6 °F - 39.9 °F 40% 30.15 in 10.0 mi Calm Calm - N/A   Clear
9:15 PM 61.5 °F - 41.2 °F 47% 30.16 in 10.0 mi Calm Calm - N/A   Clear
9:35 PM 59.7 °F - 43.9 °F 56% 30.16 in 10.0 mi Calm Calm - N/A   Clear
9:54 PM 61.7 °F - 40.6 °F 46% 30.16 in 10.0 mi South 3.5 mph - N/A   Clear
10:15 PM 61.7 °F - 40.5 °F 46% 30.16 in 10.0 mi Calm Calm - N/A   Clear
10:35 PM 59.9 °F - 41.0 °F 50% 30.16 in 10.0 mi Calm Calm - N/A   Clear
10:54 PM 59.9 °F - 40.5 °F 49% 30.16 in 10.0 mi SSW 3.5 mph - N/A   Clear
11:15 PM 59.9 °F - 40.1 °F 48% 30.16 in 10.0 mi Calm Calm - N/A   Clear
11:35 PM 57.0 °F - 41.0 °F 55% 30.16 in 10.0 mi Calm Calm - N/A   Clear
11:54 PM 57.9 °F - 40.6 °F 53% 30.16 in 10.0 mi Calm Calm - N/A   Clear